Caldwell, NJ

7:13 PM EDT on September 28, 2016 (GMT -0400)
Essex County

Weather History for KCDW - August, 2013

Change the Weather History Date:

Sunday, August 25, 2013

  Actual Average Record
Temperature  
Mean Temperature 68 °F -  
Max Temperature 81 °F 81 °F 94 °F (1980)
Min Temperature 55 °F 55 °F 44 °F (1971)
Cooling Degree Days 2    
Growing Degree Days 18 (Base 50)    
Moisture  
Dew Point 54 °F    
Average Humidity 64    
Maximum Humidity 93    
Minimum Humidity 36    
Precipitation  
Precipitation 0.00 in - - ()
Sea Level Pressure  
Sea Level Pressure 30.35 in    
Wind  
Wind Speed 1 mph (WSW)    
Max Wind Speed 8 mph    
Max Gust Speed -    
Visibility 10 miles    
Events      
Averages and records for this station are not official NWS values.
T = Trace of Precipitation, MM = Missing Value Source: NWS Daily Summary

Daily Weather History Graph

Daily Weather History Graph

Search for Another Location

Airport or City:

Trip Planner

Search our weather history database for the weather conditions in past years. The results will help you decide how hot, cold, wet, or windy it might be!

Date:

Astronomy

Aug. 25, 2013 Rise Set
Actual Time 6:17 AM EDT 7:40 PM EDT
Civil Twilight 5:48 AM EDT 8:08 PM EDT
Nautical Twilight 5:14 AM EDT 8:43 PM EDT
Astronomical Twilight 4:37 AM EDT 9:19 PM EDT
Moon 10:07 PM EDT (8/25) 11:19 AM EDT (8/25)
Length of Visible Light 14h 20m
Length of Day
13h 22m
Waning Gibbous, 76% of the Moon is Illuminated
Aug 25
Waning Gibbous
Aug 28
Last Quarter
Sep 5
New
Sep 12
First Quarter
Sep 19
Full

Hourly Weather History & Observations

Time (EDT) Temp. Heat Index Dew Point Humidity Pressure Visibility Wind Dir Wind Speed Gust Speed Precip Events Conditions
12:53 AM 60.1 °F - 55.9 °F 86% 30.37 in 10.0 mi Calm Calm - N/A   Clear
1:53 AM 57.9 °F - 55.0 °F 90% 30.36 in 10.0 mi Calm Calm - N/A   Clear
2:53 AM 57.9 °F - 55.0 °F 90% 30.36 in 10.0 mi Calm Calm - N/A   Clear
3:53 AM 57.0 °F - 54.0 °F 89% 30.37 in 10.0 mi Calm Calm - N/A   Clear
4:53 AM 55.9 °F - 53.1 °F 90% 30.38 in 10.0 mi Calm Calm - N/A   Clear
5:53 AM 55.0 °F - 53.1 °F 93% 30.40 in 10.0 mi Calm Calm - N/A   Clear
6:53 AM 55.0 °F - 53.1 °F 93% 30.41 in 10.0 mi Calm Calm - N/A   Clear
7:53 AM 60.1 °F - 55.9 °F 86% 30.42 in 10.0 mi Calm Calm - N/A   Clear
8:53 AM 64.0 °F - 55.9 °F 75% 30.43 in 10.0 mi Calm Calm - N/A   Clear
9:53 AM 68.0 °F - 57.0 °F 68% 30.42 in 10.0 mi Calm Calm - N/A   Clear
10:53 AM 73.9 °F - 57.0 °F 55% 30.41 in 10.0 mi Calm Calm - N/A   Clear
11:53 AM 78.1 °F - 51.1 °F 39% 30.39 in 10.0 mi Variable 3.5 mph - N/A   Clear
12:53 PM 79.0 °F - 52.0 °F 39% 30.37 in 10.0 mi WSW 8.1 mph - N/A   Clear
1:53 PM 79.0 °F - 54.0 °F 42% 30.35 in 10.0 mi Variable 4.6 mph - N/A   Clear
2:53 PM 80.1 °F - 51.1 °F 36% 30.34 in 10.0 mi Variable 6.9 mph - N/A   Clear
3:53 PM 80.1 °F 79.9 °F 53.1 °F 39% 30.32 in 10.0 mi Variable 4.6 mph - N/A   Clear
4:53 PM 80.1 °F 80.0 °F 54.0 °F 40% 30.31 in 10.0 mi West 8.1 mph - N/A   Clear
5:53 PM 79.0 °F - 53.1 °F 40% 30.28 in 10.0 mi Variable 4.6 mph - N/A   Clear
6:53 PM 75.9 °F - 52.0 °F 43% 30.27 in 10.0 mi SW 3.5 mph - N/A   Clear
7:53 PM 73.9 °F - 52.0 °F 46% 30.26 in 10.0 mi Calm Calm - N/A   Clear
8:53 PM 71.1 °F - 54.0 °F 55% 30.27 in 10.0 mi Calm Calm - N/A   Clear
9:53 PM 69.1 °F - 55.0 °F 61% 30.27 in 10.0 mi Calm Calm - N/A   Clear
10:53 PM 66.9 °F - 55.0 °F 66% 30.27 in 10.0 mi Calm Calm - N/A   Clear
11:53 PM 66.9 °F - 55.0 °F 66% 30.26 in 10.0 mi Calm Calm - N/A   Clear